Regional Weather Roundup
Issued by NWS

Home | Current Version | Previous Version | Graphics & Text | Print | Product List | Glossary On
Versions: 1 2 3 4 5 6 7 8 9 10 11 12 13 14 15 16 17 18 19 20 21 22 23 24 25 26 27 28 29 30 31 32 33 34 35 36 37 38 39 40 41 42 43 44 45 46 47 48 49 50
000
ASUS45 KPSR 160200
RWRAZ

PRELIMINARY ARIZONA REGIONAL HOURLY WEATHER ROUNDUP
NATIONAL WEATHER SERVICE PHOENIX AZ
700 PM MST TUE APR 15 2014

NOTE: FAIR INDICATES FEW OR NO CLOUDS BELOW 12,000 FEET WITH NO
SIGNIFICANT WEATHER AND/OR OBSTRUCTIONS TO VISIBILITY.

AZZ001>003-036-160300-
NORTHWEST ARIZONA

CITY           SKY/WX    TMP DP  RH WIND       PRES   REMARKS
KINGMAN        PTCLDY    70  -9   4 SW14      29.86F
$$

AZZ004>008-015-016-018-160300-
NORTH CENTRAL ARIZONA

CITY           SKY/WX    TMP DP  RH WIND       PRES   REMARKS
GRAND CANYON   PTCLDY    59  -3   8 SW7       29.98S
WILLIAMS       MOCLDY    57   0   9 S9        30.06S
PRESCOTT       MOCLDY    64   1   8 SW6       29.93F
FLAGSTAFF      MOCLDY    54   8  16 SW8       30.01F
PAYSON         MOCLDY    63  12  14 CALM      29.96F
PAGE           PTCLDY    72   7   8 SW8       29.81F
$$

AZZ009>014-017-160300-
NORTHEAST ARIZONA

CITY           SKY/WX    TMP DP  RH WIND       PRES   REMARKS
WINSLOW        NOT AVBL
SAINT JOHNS    CLOUDY    64   4   9 SW13      29.92F
WINDOW ROCK    MOCLDY    54  -6   8 S3        29.97F
SHOW LOW       CLOUDY    57   5  12 SW10      30.01F
$$

AZZ023-160300-
GREATER PHOENIX AREA

CITY           SKY/WX    TMP DP  RH WIND       PRES   REMARKS
PHOENIX        PTCLDY    87   5   4 NW8       29.72F
GLENDALE       PTCLDY    86   7   5 VRB3      29.74F
DEER VALLEY    PTCLDY    81   2   5 SW5       29.74F
SCOTTSDALE     PTCLDY    83   8   6 W3        29.76F
MESA-GATEWAY   PTCLDY    84  12   6 W6        29.76F
CHANDLER       PTCLDY    84   9   6 VRB6      29.74F
$$

AZZ027-028-160300-
SOUTHWEST MARICOPA COUNTY AND PINAL COUNTY

CITY           SKY/WX    TMP DP  RH WIND       PRES   REMARKS
CASA GRANDE    CLEAR     82  16   8 CALM      29.76S
GILA BEND      CLEAR     84  10   6 W3        29.74F
$$

AZZ503-504-507>509-160300-
SOUTHEAST ARIZONA

CITY           SKY/WX    TMP DP  RH WIND       PRES   REMARKS
TUCSON         CLEAR     82   4   5 N13       29.80S
DAVIS-MONTHAN  CLEAR     80   7   6 NW12      29.79S
RYAN FIELD       N/A     82  12   7 NW9       29.80R
NOGALES        CLEAR     76   7   7 W9        29.87R
SIERRA VISTA   PTCLDY    73   1   6 W10       29.90S
SAFFORD        PTCLDY    75   7   7 E5        29.82F
$$

AZZ020-021-025-026-031-160300-
SOUTHWEST ARIZONA

CITY           SKY/WX    TMP DP  RH WIND       PRES   REMARKS
YUMA           NOT AVBL
$$

CAZ031-033-041-043-047-048-061-160300-
SOUTHERN CALIFORNIA

CITY           SKY/WX    TMP DP  RH WIND       PRES   REMARKS
DOWNTOWN L.A.  CLEAR     62  52  69 VRB5      29.83S
L.A. AIRPORT   MOCLDY    58  52  80 W12       29.84F
SAN DIEGO      MOCLDY    62  54  74 NW6       29.88R
BURBANK        CLEAR     75  45  34 SE6       29.81F
ONTARIO        PTCLDY    77  28  16 W10       29.82S
RIVERSIDE      CLEAR     76  46  34 W13       29.82S
PALM SPRINGS   CLEAR     89  25  10 E9        29.71F
EL CENTRO NAS  PTCLDY    87  20   8 S5        29.68F
IMPERIAL       CLEAR     89  20   8 SE6       29.68F
BLYTHE         CLEAR     86  18   8 SE6       29.70F
$$

NVZ020-UTZ003-160300-
SOUTHERN NEVADA-UTAH

CITY           SKY/WX    TMP DP  RH WIND       PRES   REMARKS
LAS VEGAS      NOT AVBL
SALT LAKE CITY CLOUDY    58  28  32 N10       29.83R
$$

NMZ009-TXZ055-160300-
NEW MEXICO-WEST TEXAS

CITY           SKY/WX    TMP DP  RH WIND       PRES   REMARKS
ALBUQUERQUE    MOCLDY    63  12  13 S14       29.92S
EL PASO        MOCLDY    68   3   7 SE3       29.93F
$$


........................KEY........................
SKY/WX - SKY CONDITION/WEATHER
TMP    - TEMPERATURE IN FAHRENHEIT
DP     - DEW POINT IN FAHRENHEIT
RH     - RELATIVE HUMIDITY IN PERCENT
WIND   - DIRECTION AND SPEED IN MILES PER HOUR (MPH)
VRB    - VARIABLE WIND DIRECTION
PRES   - MEAN SEA LEVEL PRESSURE IN INCHES OF MERCURY
         F - FALLING PRESSURE   R - RISING PRESSURE
         S - STEADY PRESSURE
VSB    - VISIBILITY IN MILES
HX     - HEAT INDEX IN FAHRENHEIT
WCI    - WIND CHILL INDEX IN FAHRENHEIT
TC     - TEMPERATURE IN CELSIUS WHICH IS ALSO KNOWN AS
         TEMPERATURE IN CENTIGRADE
AFB    - AIR FORCE BASE
         LUKE AFB IS LUKE AIR FORCE BASE
         DAVIS-MONTHAN IS DAVIS-MONTHAN AIR FORCE BASE
NAS    - NAVAL AIR STATION
         EL CENTRO NAS IS EL CENTRO NAVAL AIR STATION
N/A    - NOT AVAILABLE



USA.gov is the U.S. government's official web portal to all federal, state and local government web resources and services.